Regional Weather Roundup
Issued by NWS

Home | Current Version | Previous Version | Text Only | Print | Product List | Glossary Off
Versions: 1 2 3 4 5 6 7 8 9 10 11 12 13 14 15 16 17 18 19 20 21 22 23 24 25 26 27 28 29 30 31 32 33 34 35 36 37 38 39 40 41 42 43 44 45 46 47 48 49 50

000
ASUS45 KPSR 251010
RWRAZ

ARIZONA HOURLY REGIONAL WEATHER ROUNDUP
NATIONAL WEATHER SERVICE PHOENIX AZ
300 AM MST WED MAY 25 2016

NOTE: FAIR INDICATES FEW OR NO CLOUDS BELOW 12,000 FEET WITH NO
SIGNIFICANT WEATHER AND/OR OBSTRUCTIONS TO VISIBILITY.

AZZ001>003-036-251100-
NORTHWEST ARIZONA

CITY           SKY/WX    TMP DP  RH WIND       PRES   REMARKS
BULLHEAD CITY  CLEAR     68  32  26 CALM      29.89S
KINGMAN        CLEAR     48  21  34 S5        29.97S
$$

AZZ004>008-015-016-018-251100-
NORTH CENTRAL ARIZONA

CITY           SKY/WX    TMP DP  RH WIND       PRES   REMARKS
GRAND CANYON   CLEAR     31  16  54 NE5       30.10S WCI  26
WILLIAMS       CLEAR     39  14  35 SE7       30.16S WCI  34
PRESCOTT       CLEAR     43  21  41 SW7       30.06S
FLAGSTAFF      CLEAR     37  18  46 W5        30.11F WCI  33
PAYSON         CLEAR     48  25  40 CALM      30.09F
PAGE           PTCLDY    57  22  25 CALM      29.99F
$$

AZZ009>014-017-251100-
NORTHEAST ARIZONA

CITY           SKY/WX    TMP DP  RH WIND       PRES   REMARKS
WINSLOW        CLEAR     44  21  40 SE5       30.07R
SAINT JOHNS    CLEAR     46  21  37 SW7       30.09S
WINDOW ROCK    PTCLDY    46  19  34 CALM      30.14R
SHOW LOW       CLEAR     45  18  33 S12       30.12F
$$

AZZ023-251100-
GREATER PHOENIX AREA

CITY           SKY/WX    TMP DP  RH WIND       PRES   REMARKS
PHOENIX        CLEAR     73  28  18 NE5       29.89S
BUCKEYE        CLEAR     63  28  27 E3        29.92S
LUKE AFB       CLEAR     63  32  31 NW3       29.90S
DEER VALLEY    CLEAR     62  20  19 CALM      29.91S
SCOTTSDALE     CLEAR     67  24  19 N3        29.93S
MESA-GATEWAY   CLEAR     61  28  29 E3        29.93S
$$

AZZ027-028-251100-
SOUTHWEST MARICOPA COUNTY AND PINAL COUNTY

CITY           SKY/WX    TMP DP  RH WIND       PRES   REMARKS
CASA GRANDE    CLEAR     63  27  25 CALM      29.93S
GILA BEND      FAIR      63  22  20 CALM      29.91R
$$

AZZ503-504-507>509-251100-
SOUTHEAST ARIZONA

CITY           SKY/WX    TMP DP  RH WIND       PRES   REMARKS
TUCSON         CLEAR     63  28  26 S6        30.00F
DAVIS-MONTHAN  CLEAR     61  32  32 S7        29.98F
NOGALES        CLEAR     53  32  44 CALM      30.05S
SIERRA VISTA   CLEAR     61  30  30 S7        30.09F
DOUGLAS        CLEAR     55  17  22 E6        30.07S
SAFFORD        CLEAR     66  23  19 NW6       29.98S
$$

AZZ020-021-025-026-031-251100-
SOUTHWEST ARIZONA

CITY           SKY/WX    TMP DP  RH WIND       PRES   REMARKS
YUMA           NOT AVBL
$$

CAZ031-033-041-043-047-048-061-251100-
SOUTHERN CALIFORNIA

CITY           SKY/WX    TMP DP  RH WIND       PRES   REMARKS
DOWNTOWN L.A.  PTCLDY    58  53  84 CALM      30.03F
L.A. AIRPORT   PTCLDY    58  52  80 W10       30.04S
SAN DIEGO      MOCLDY    63  51  65 CALM      30.05F
BURBANK        MOCLDY    55  49  80 W3        30.03S
ONTARIO        MOCLDY    56  50  80 W7        30.03F
RIVERSIDE      CLOUDY    57  50  77 W7        30.03F
PALM SPRINGS   CLEAR     65  43  44 W5        29.91R
EL CENTRO NAS  CLEAR     62  38  40 W12       29.92S
IMPERIAL       CLEAR     63  40  42 W9        29.90S
BLYTHE         CLEAR     61  48  62 CALM      29.89S
NEEDLES        CLEAR     68  34  28 SW6       29.88R
$$

NVZ020-UTZ003-251100-
SOUTHERN NEVADA-UTAH

CITY           SKY/WX    TMP DP  RH WIND       PRES   REMARKS
LAS VEGAS      PTCLDY    64  36  35 S8        29.87S
SALT LAKE CITY MOCLDY    53  40  61 SE6       29.96S
$$

NMZ009-TXZ055-251100-
NEW MEXICO-WEST TEXAS

CITY           SKY/WX    TMP DP  RH WIND       PRES   REMARKS
ALBUQUERQUE    CLEAR     54  13  19 SE3       30.08R
EL PASO        PTCLDY    74  20  13 W12       30.02S
$$


........................KEY........................
SKY/WX - SKY CONDITION/WEATHER
TMP    - TEMPERATURE IN FAHRENHEIT
DP     - DEW POINT IN FAHRENHEIT
RH     - RELATIVE HUMIDITY IN PERCENT
WIND   - DIRECTION AND SPEED IN MILES PER HOUR (MPH)
VRB    - VARIABLE WIND DIRECTION
PRES   - MEAN SEA LEVEL PRESSURE IN INCHES OF MERCURY
         F - FALLING PRESSURE   R - RISING PRESSURE
         S - STEADY PRESSURE
VSB    - VISIBILITY IN MILES
HX     - HEAT INDEX IN FAHRENHEIT
WCI    - WIND CHILL INDEX IN FAHRENHEIT
TC     - TEMPERATURE IN CELSIUS WHICH IS ALSO KNOWN AS
         TEMPERATURE IN CENTIGRADE
AFB    - AIR FORCE BASE
         LUKE AFB IS LUKE AIR FORCE BASE
         DAVIS-MONTHAN IS DAVIS-MONTHAN AIR FORCE BASE
NAS    - NAVAL AIR STATION
         EL CENTRO NAS IS EL CENTRO NAVAL AIR STATION
N/A    - NOT AVAILABLE




USA.gov is the U.S. government's official web portal to all federal, state and local government web resources and services.